Home   Weather   Steinbach   Past weeks

Flag for Canada Past Weather in Steinbach, Manitoba, Canada — Yesterday and Last 2 Weeks

Now
-1 °F

Frigid.


Feels Like: -9 °F
Forecast: -16 / -2 °F
Wind: 3 mph from Northwest

Location: Winnipeg The Forks Man

Current Time: Dec 9, 2016 at 11:00:07 pm

Latest Report: Dec 9, 2016 at 10:00 pm


Visibility: N/A

Pressure: 30.61 "Hg

Humidity: 78%

Dew Point: -6 °F

Location of SteinbachLocation

Past Weather in Steinbach — Graph

°F

Steinbach Temperature Yesterday

Maximum temperature yesterday: 18 °F (at 2:00 am)
Minimum temperature yesterday: 3 °F (at 11:00 pm)
Average temperature yesterday: 12 °F

High & Low Weather Summary for the Past Weeks

 TemperatureHumidityPressure
High41 °F (Nov 26, 3:00 pm)100% (Nov 27, 8:00 am)30.66 "Hg (Nov 27, 8:00 am)
Low-1 °F (Dec 9, 8:00 pm)63% (Dec 8, 3:00 pm)29.08 "Hg (Nov 28, 2:00 pm)
Average27 °F86%29.91 "Hg
* Reported Nov 24 9:00 pm — Dec 9 9:00 pm, Steinbach, Weather by CustomWeather, © 2016

Note: Actual official high and low records may vary slightly from our data, if they occured in-between our weather recording intervals... More about our weather records

Advertising

Steinbach Weather History for the Previous 24 Hours

Scroll right to see more
 ConditionsComfort  
Time TempWeatherWind HumidityBarometerVisibility
9:00 pm
Fri, Dec 9
-1 °FFrigid.5 mph76%30.61 "HgN/A
8:00 pm-1 °FFrigid.5 mph76%30.61 "HgN/A
7:00 pm0 °FFrigid.5 mph75%30.61 "HgN/A
6:00 pm1 °FFrigid.5 mph73%30.61 "HgN/A
5:00 pm1 °FFrigid.5 mph72%30.62 "HgN/A
4:00 pm2 °FFrigid.3 mph71%30.62 "HgN/A
3:00 pm3 °FFrigid.2 mph70%30.61 "HgN/A
2:00 pm3 °FFrigid.3 mph71%30.60 "HgN/A
1:00 pm3 °FFrigid.5 mph75%30.62 "HgN/A
12:00 pm2 °FFrigid.3 mph75%30.63 "HgN/A
11:00 am3 °FFrigid.2 mph73%30.63 "HgN/A
10:00 am4 °FFrigid.2 mph68%30.63 "HgN/A
9:00 am2 °FFrigid.5 mph72%30.64 "HgN/A
8:00 am2 °FFrigid.6 mph71%30.63 "HgN/A
7:00 am2 °FFrigid.3 mph73%30.63 "HgN/A
6:00 am2 °FFrigid.3 mph73%30.63 "HgN/A
5:00 am2 °FFrigid.5 mph70%30.64 "HgN/A
4:00 am2 °FFrigid.3 mph71%30.64 "HgN/A
3:00 am2 °FFrigid.3 mph73%30.64 "HgN/A
2:00 am2 °FFrigid.3 mph71%30.64 "HgN/A
1:00 am2 °FFrigid.5 mph68%30.65 "HgN/A
12:00 am3 °FFrigid.6 mph70%30.64 "HgN/A
11:00 pm
Thu, Dec 8
3 °FFrigid.7 mph70%30.63 "HgN/A
Weather by CustomWeather, © 2016

See weather overviewHow to use our weather pages